Flag for Germany Weather past 2 weeks in Stuhr, Lower Saxony, Germany

43 °F

Light rain. Passing clouds.

Feels Like: 35 °F
Forecast: 41 / 46 °F
Wind: 17 mph from Southwest

Location: Bremen Airport

Current Time: Nov 29, 2015 at 2:03:38 AM

Latest Report: Nov 29, 2015 at 12:50 AM

Visibility: N/A

Pressure: 29.65 "Hg

Humidity: 87%

Dew point: 39 °F

Location of StuhrLocation

Historic Weather in Stuhr — Graph


Stuhr temperature yesterday

Maximum temperature yesterday: 45 °F (at 11:20 AM)
Minimum temperature yesterday: 37 °F (at 4:50 AM)
Average temperature yesterday: 42 °F

Past Weeks' High & Low Weather Summary

High57 °F (Nov 15, 10:20 AM)100% (Nov 15, 1:50 AM)30.18 "Hg (Nov 15, 1:50 AM)
Low28 °F (Nov 22, 12:20 AM)57% (Nov 23, 1:20 PM)29.33 "Hg (Nov 21, 3:20 AM)
Average44 °F87%29.76 "Hg
* Reported Nov 14 12:20 AM — Nov 29 12:20 AM, Stuhr, Weather by CustomWeather, © 2015

Note: Actual official high and low records may vary slightly from our data, if they occured in-between our weather recording intervals... More about our weather records


Stuhr weather history for previous 24 hours

Time TempWeatherWind HumidityBarometerVisibility
12:20 AM
Sun, Nov 29
43 °FQuite cool.18 mph87%29.65 "HgN/A
11:50 PM
Sat, Nov 28
43 °FLight rain. Passing clouds.21 mph87%29.68 "HgN/A
11:20 PM43 °FLight rain. Passing clouds.18 mph81%29.68 "HgN/A
10:50 PM43 °FLight rain. Passing clouds.20 mph81%29.71 "HgN/A
10:20 PM43 °FPassing clouds.17 mph76%29.74 "HgN/A
9:20 PM41 °FLight rain. Partly cloudy.16 mph81%29.77 "HgN/A
8:50 PM41 °FLight rain. Clear.16 mph81%29.77 "HgN/A
8:20 PM41 °FClear.15 mph81%29.80 "Hg10 mi
7:50 PM41 °FClear.16 mph81%29.80 "Hg10 mi
7:20 PM41 °FClear.14 mph81%29.80 "Hg10 mi
6:50 PM41 °FClear.14 mph81%29.80 "Hg10 mi
6:20 PM41 °FClear.12 mph81%29.83 "Hg10 mi
5:50 PM41 °FClear.13 mph81%29.83 "Hg10 mi
5:20 PM41 °FPassing clouds.13 mph81%29.83 "HgN/A
4:50 PM41 °FPassing clouds.10 mph81%29.83 "HgN/A
4:20 PM41 °FPassing clouds.14 mph81%29.83 "HgN/A
3:50 PM43 °FScattered clouds.14 mph76%29.83 "HgN/A
3:20 PM45 °FPassing clouds.14 mph71%29.80 "HgN/A
2:50 PM45 °FPassing clouds.15 mph76%29.80 "HgN/A
2:20 PM45 °FScattered showers. Scattered clouds.15 mph76%29.80 "HgN/A
1:50 PM45 °FPassing clouds.17 mph76%29.80 "HgN/A
1:20 PM45 °FPassing clouds.18 mph76%29.77 "HgN/A
12:50 PM45 °FPassing clouds.21 mph76%29.77 "HgN/A
12:20 PM45 °FPassing clouds.18 mph76%29.77 "HgN/A
11:50 AM45 °FPassing clouds.18 mph76%29.74 "HgN/A
11:20 AM45 °FPassing clouds.17 mph81%29.74 "HgN/A
10:50 AM43 °FScattered clouds.16 mph87%29.74 "HgN/A
10:20 AM43 °FPartly sunny.13 mph93%29.71 "HgN/A
9:50 AM43 °FLight rain. Broken clouds.12 mph93%29.71 "HgN/A
9:20 AM43 °FLight rain. Partly sunny.12 mph93%29.68 "HgN/A
8:50 AM43 °FLight rain. Broken clouds.13 mph93%29.68 "HgN/A
8:20 AM43 °FLight rain. Broken clouds.16 mph93%29.65 "HgN/A
7:20 AM39 °FLight rain. Passing clouds.14 mph100%29.59 "Hg5 mi
6:50 AM39 °FPassing clouds.15 mph93%29.59 "Hg4 mi
6:20 AM39 °FPassing clouds.13 mph93%29.59 "Hg4 mi
5:50 AM37 °FPartly cloudy.12 mph100%29.59 "Hg4 mi
5:20 AM37 °FPartly cloudy.12 mph93%29.59 "Hg4 mi
4:50 AM37 °FPassing clouds.13 mph93%29.59 "Hg5 mi
4:20 AM39 °FPassing clouds.15 mph81%29.59 "HgN/A
3:50 AM39 °FPassing clouds.14 mph81%29.62 "HgN/A
3:20 AM39 °FPartly cloudy.16 mph81%29.62 "HgN/A
2:50 AM39 °FPassing clouds.14 mph81%29.65 "HgN/A
2:20 AM39 °FPassing clouds.14 mph81%29.65 "HgN/A
Weather by CustomWeather, © 2015

See weather overviewHow to use our weather pages